THORAD AGENA D DEB, 4708

Orbit data source: Space-Track

THORAD AGENA D DEB, 4708 is space debris in SSO originally from a launch on Wed, 08 Apr 1970 UTC launched from the Air Force Western Test Range (AFWTR). Debris objects in space refer to the collection of defunct objects orbiting the Earth. Examples of debris include non-operational satellites, rocket bodies, and fragments generated from explosions, collisions, or faulty payload assembly.

Loading next visibility...
Identifier
4708, 1970-025BW
Orbit
SSO
Country
Flag of USUS
Related business
Manufacturer
Unknown
Mission
Spacecraft
Bus & Motor
Unknown
Mass
Unknown
Launch date (UTC)
1970-04-08 (56 years ago)
Launch vehicle
Unknown
Launch site
Air Force Western Test Range (AFWTR)
Object type
Payload
Rocket body
Debris
Shape & HBR
Unknown shape, 0.1 m
Radar Cross Section
Small (<0.1 m²)

Expand to show TLE details & history
Last TLE update: 1 day ago

TLE from 1 day ago
0 THORAD AGENA D DEB
1 04708U 70025BW  25300.70502896  .00002066  00000-0  17400-2 0  9998
2 04708 100.0472   7.2279 0062836   5.1444 151.6228 13.88301889762958
Epoch: 2025-10-27T16:55Z
TLE epoch observation values (Epoch: 2025-10-27T16:55:14.502Z)
Latitude
22.53971°
Longitude
-98.69057°
Altitude
977.746 km
Speed
7.344 km/s
True Right ascension
12h 45m 41s
True Declination
22° 25' 19"
Sunlit
Object was in daylight at epoch
Visualization orbit readout
Latitude
Unknown
Longitude
Unknown
Altitude
Unknown
Speed
Unknown
Apparent Right ascension
Unknown
Apparent Declination
Unknown
Sunlit
N/A
Visualization observer readout
Local Sidereal Time
12:34:51
Azimuth
Unknown
Elevation
Unknown
Doppler factor
Unknown
Orbital elements
Apogee altitude
977.79 km
Perigee altitude
885.924 km
Semi-major axis
7,309.994 km
Eccentricity
0.00628
Inclination
100.0472°
RAAN
7.2279°
Arg. of periapsis
5.1444°
True anomaly
151.96267°
Mean anomaly
151.6228°
Eccentric anomaly
151.79297°
Mean motion
3.4727 °/min
Orbital period
103.67 mins
BSTAR
0.00174
Loading maneuver chart data...
Computing Atmospheric mass density...

Documentation

Showing up to 5 results
|